Location: Cadenet
(43.7345°N, 5.3750°E)
Time: 10:52:13
(UTC+00:00)

STARLINK-1091 - Pass Details

Date: 18 February 2020
Orbit: 549 x 550 km, 53.0° (Epoch: 05 April)

Event Time Altitude Azimuth Distance (km) Brightness Sun altitude
Exits shadow 05:42:32 14° 277° (W) 1,572 5.3 -9.9°
Maximum altitude 05:45:38 34° 339° (NNW) 895 4.5 -9.4°
Drops below altitude 10° 05:49:24 10° 46° (NE) 1,799 6.8 -8.7°
Sets 05:51:46 0° 55° (NE) 2,691 7.9 -8.3°
